Raleigh-Durham Airport, NC

12:47 AM EST on January 20, 2018 (GMT -0500)
Raleigh-Durham International

Weather History for KRDU - November, 2010

Change the Weather History Date:

Saturday, November 13, 2010

  Actual Average Record
Temperature  
Mean Temperature 51 °F 53 °F  
Max Temperature 69 °F 65 °F 80 °F (1955)
Min Temperature 32 °F 42 °F 23 °F (1976)
Degree Days  
Heating Degree Days 14 12  
Month to date heating degree days 185 138  
Since 1 July heating degree days 294 327  
Cooling Degree Days 0 0  
Month to date cooling degree days 0 1  
Year to date cooling degree days 2315 1721  
Moisture  
Dew Point 28 °F    
Average Humidity 49    
Maximum Humidity 82    
Minimum Humidity 16    
Precipitation  
Precipitation 0.00 in 0.10 in 2.52 in (1904)
Month to date precipitation 0.90 1.36  
Year to date precipitation 34.00 38.51  
Snow  
Snow 0.00 in - - ()
Month to date snowfall 0.0  
Snow Depth 0.00 in    
Sea Level Pressure  
Sea Level Pressure 30.20 in    
Wind  
Wind Speed 1 mph (NNE)    
Max Wind Speed 8 mph    
Max Gust Speed 12 mph    
Visibility 10 miles    
Events      
T = Trace of Precipitation, MM = Missing Value Source: NWS Daily Summary

Daily Weather History Graph

Daily Weather History Graph

Search for Another Location

Airport or City:

Trip Planner

Search our weather history database for the weather conditions in past years. The results will help you decide how hot, cold, wet, or windy it might be!

Date:

Astronomy

Nov. 13, 2010 Rise Set
Actual Time 6:49 AM EST 5:09 PM EST
Civil Twilight 6:22 AM EST 5:36 PM EST
Nautical Twilight 5:51 AM EST 6:07 PM EST
Astronomical Twilight 5:21 AM EST 6:37 PM EST
Moon 12:47 PM EST (11/13) No Moon Set
Length of Visible Light 11h 14m
Length of Day
10h 19m
Waxing Crescent, 50% of the Moon is Illuminated
Nov 13
Waxing Crescent
Nov 21
Full
Nov 28
Last Quarter
Dec 5
New
Dec 13
First Quarter

Hourly Weather History & Observations

Time (EST) Temp. Windchill Dew Point Humidity Pressure Visibility Wind Dir Wind Speed Gust Speed Precip Events Conditions
12:51 AM 35.6 °F - 28.4 °F 75% 30.28 in 10.0 mi Calm Calm - N/A   Clear
1:51 AM 35.1 °F - 30.0 °F 82% 30.28 in 10.0 mi Calm Calm - N/A   Clear
2:51 AM 35.1 °F - 28.9 °F 78% 30.27 in 10.0 mi Calm Calm - N/A   Clear
3:51 AM 33.8 °F - 28.4 °F 81% 30.26 in 10.0 mi Calm Calm - N/A   Clear
4:51 AM 33.1 °F - 28.0 °F 82% 30.26 in 10.0 mi Calm Calm - N/A   Clear
5:51 AM 32.0 °F 28.7 °F 27.0 °F 82% 30.27 in 10.0 mi NNW 3.5 mph - N/A   Clear
6:51 AM 32.0 °F - 26.1 °F 79% 30.26 in 10.0 mi Calm Calm - N/A   Clear
7:51 AM 37.9 °F - 27.0 °F 65% 30.27 in 10.0 mi Calm Calm - N/A   Clear
8:51 AM 46.9 °F - 28.0 °F 48% 30.26 in 10.0 mi Calm Calm - N/A   Partly Cloudy
9:51 AM 53.1 °F - 28.0 °F 38% 30.26 in 10.0 mi NNE 3.5 mph - N/A   Partly Cloudy
10:51 AM 60.1 °F - 24.1 °F 25% 30.24 in 10.0 mi Variable 4.6 mph - N/A   Partly Cloudy
11:51 AM 63.0 °F - 21.0 °F 20% 30.21 in 10.0 mi Variable 3.5 mph - N/A   Partly Cloudy
12:51 PM 64.9 °F - 19.0 °F 17% 30.17 in 10.0 mi Variable 5.8 mph - N/A   Partly Cloudy
1:51 PM 66.9 °F - 19.9 °F 17% 30.14 in 10.0 mi North 3.5 mph - N/A   Partly Cloudy
2:51 PM 68.0 °F - 23.0 °F 18% 30.13 in 10.0 mi NE 4.6 mph - N/A   Partly Cloudy
3:51 PM 66.0 °F - 23.0 °F 20% 30.12 in 10.0 mi NE 4.6 mph - N/A   Scattered Clouds
4:51 PM 61.0 °F - 26.1 °F 26% 30.12 in 10.0 mi Calm Calm - N/A   Scattered Clouds
5:51 PM 52.0 °F - 33.1 °F 49% 30.12 in 10.0 mi Calm Calm - N/A   Scattered Clouds
6:51 PM 48.9 °F - 33.1 °F 54% 30.13 in 10.0 mi Calm Calm - N/A   Partly Cloudy
7:51 PM 46.0 °F - 32.0 °F 58% 30.13 in 10.0 mi Calm Calm - N/A   Partly Cloudy
8:51 PM 43.0 °F - 33.1 °F 68% 30.13 in 10.0 mi Calm Calm - N/A   Clear
9:51 PM 41.0 °F - 34.0 °F 76% 30.13 in 9.0 mi Calm Calm - N/A   Clear
10:51 PM 41.0 °F - 30.9 °F 67% 30.13 in 10.0 mi Calm Calm - N/A   Partly Cloudy
11:51 PM 37.0 °F - 33.1 °F 86% 30.12 in 10.0 mi Calm Calm - N/A   Scattered Clouds